This is the latest recevied weather packets stored in our database for station/object N8TWM-13. If no packets are shown the sender has not sent any weather packets the latest 10 day(s).
| Time | Temp. | Humidity | Pressure | Rain* | Wind** | Luminosity | Snow |
|---|---|---|---|---|---|---|---|
| 1778175328 | 12.78° C | 51% | 1013.2 hPa | 0 mm | - | 108 W/m² | - |
| 1778175026 | 12.78° C | 51% | 1013 hPa | 0 mm | - | 153 W/m² | - |
| 1778174721 | 12.78° C | 54% | 1013.3 hPa | 0 mm | - | 144 W/m² | - |
| 1778174418 | 12.22° C | 52% | 1013.3 hPa | 0 mm | - | 123 W/m² | - |
| 1778174114 | 12.22° C | 55% | 1013.4 hPa | 0 mm | - | 169 W/m² | - |
| 1778173812 | 11.67° C | 52% | 1013.2 hPa | 0 mm | - | 111 W/m² | - |
| 1778173508 | 11.67° C | 53% | 1013.6 hPa | 0 mm | - | 324 W/m² | - |
| 1778173205 | 12.22° C | 52% | 1013.3 hPa | 0 mm | - | 160 W/m² | - |
| 1778172901 | 12.78° C | 52% | 1013.5 hPa | 0 mm | - | 796 W/m² | - |
| 1778172597 | 12.78° C | 52% | 1013.5 hPa | 0 mm | - | 434 W/m² | - |
| 1778172293 | 12.22° C | 50% | 1013.5 hPa | 0 mm | - | 165 W/m² | - |
| 1778171990 | 12.78° C | 51% | 1013.3 hPa | 0 mm | - | 125 W/m² | - |
| 1778171688 | 12.78° C | 51% | 1013.2 hPa | 0 mm | - | 121 W/m² | - |
| 1778171385 | 12.22° C | 52% | 1013.5 hPa | 0 mm | - | 402 W/m² | - |
| 1778171080 | 12.22° C | 54% | 1013.7 hPa | 0 mm | - | 782 W/m² | - |
| 1778170777 | 12.22° C | 52% | 1013.4 hPa | 0 mm | - | 755 W/m² | - |
| 1778170473 | 12.22° C | 51% | 1013.3 hPa | 0 mm | - | 756 W/m² | - |
| 1778170170 | 12.22° C | 52% | 1013.6 hPa | 0 mm | - | 86 W/m² | - |
| 1778169866 | 12.22° C | 52% | 1013.4 hPa | 0 mm | - | 112 W/m² | - |
| 1778169562 | 12.22° C | 51% | 1013.4 hPa | 0 mm | - | 301 W/m² | - |
| 1778169258 | 12.22° C | 52% | 1013.4 hPa | 0 mm | - | 775 W/m² | - |
| 1778168956 | 12.22° C | 53% | 1013.3 hPa | 0 mm | - | 387 W/m² | - |
| 1778168652 | 12.22° C | 51% | 1013.6 hPa | 0 mm | - | 870 W/m² | - |
| 1778168350 | 11.67° C | 51% | 1013.5 hPa | 0 mm | - | 826 W/m² | - |
| 1778168046 | 12.22° C | 48% | 1013.4 hPa | 0 mm | - | 823 W/m² | - |
* Rain latest hour (hover to see other rain measurements)
** Current wind speed in m/s (hover to see current wind gust speed)